Temperature
22 21 21 21 19 18 20 20 21 22 22 22 22 22 22 21 21 21 22 22 22 21 21 20 20 20 20 20 20 20 20 20 20 20 19 19 19 19 19 19 19 18 18 18 18 18 18 18 18
22 21 21 20 18 19 20 21 21 22 22 22 22 22 21 21 21 21 22 22 21 21 21 20 20 20 20 20 20 20 20 20 19 19 19 19 19 19 19 19 18 18 18 18 18 18 18 18 18
22 21 21 17 18 19 21 22 21 22 22 22 22 21 21 21 21 21 22 21 21 21 20 20 20 20 20 20 20 20 20 19 19 19 19 19 19 19 18 18 18 18 18 18 18 18 18 18 18
22 21 21 18 20 20 20 21 21 22 22 22 22 21 21 21 21 21 21 21 21 21 20 20 20 20 20 20 20 19 19 19 19 19 19 19 18 18 18 18 18 18 18 18 18 17 17 17 17
22 21 18 18 20 20 21 21 22 21 22 22 21 21 20 21 21 21 21 21 21 21 20 20 19 19 19 19 19 19 19 19 19 19 19 18 18 18 18 18 18 18 18 17 17 17 17 17 17
22 19 18 19 20 21 21 22 22 21 21 21 21 20 20 20 21 21 21 21 21 20 20 19 19 19 19 19 19 19 19 19 19 18 18 18 18 18 18 17 17 17 17 17 17 17 17 17 17
21 17 19 20 20 21 22 22 21 21 21 21 21 20 20 20 20 20 20 20 20 20 19 19 19 19 19 19 19 18 18 18 18 18 18 18 17 17 17 17 17 17 17 17 17 17 17 17 17
22 18 20 19 20 21 22 22 22 22 21 21 21 20 19 20 20 20 20 20 20 19 19 19 19 19 19 18 18 18 18 18 18 18 18 17 17 17 17 17 17 17 17 16 16 16 16 16 16
22 18 19 20 21 21 21 21 22 22 21 21 20 20 20 20 20 20 20 19 19 19 19 19 18 18 18 18 18 18 18 18 17 17 17 17 17 17 17 16 16 16 16 16 16 16 16 16 16
21 18 20 21 21 21 21 21 21 21 20 20 20 20 20 20 20 20 20 19 19 19 19 18 18 18 18 18 18 18 17 17 17 17 17 17 16 16 16 16 16 16 16 16 16 16 16 16 16
20 20 21 21 22 22 21 21 21 20 19 19 19 19 19 19 20 20 19 19 19 19 18 18 18 18 18 18 18 17 17 17 17 17 17 16 16 16 16 16 16 16 16 16 16 16 16 16 16
20 21 21 22 22 22 21 21 20 20 20 20 20 20 19 19 19 19 19 19 19 18 18 18 18 18 17 17 17 17 17 17 16 16 16 16 16 16 16 16 16 16 16 16 15 15 15 15 15
21 21 22 22 22 21 21 20 20 19 20 20 19 19 19 19 18 18 18 18 18 18 18 18 18 17 17 17 17 16 16 16 16 16 16 16 16 16 16 16 15 15 15 15 15 15 15 15 15
21 21 21 21 21 21 20 19 19 19 19 19 18 18 18 18 18 18 18 18 18 18 17 17 17 17 17 17 16 16 16 16 16 16 16 16 15 15 15 15 15 15 15 15 15 15 15 15 15
21 20 20 21 21 21 20 19 18 18 18 18 17 18 18 18 18 18 18 18 17 17 17 17 17 17 16 16 16 16 16 16 16 15 15 15 15 15 15 15 15 15 15 15 15 15 15 15 14
20 20 20 20 20 20 20 19 18 18 18 17 17 17 17 17 17 17 17 17 17 17 17 16 16 16 16 16 16 15 15 15 15 15 15 15 15 15 15 15 15 14 14 14 14 14 14 14 14
19 20 20 20 20 19 19 18 18 18 17 16 16 16 17 17 17 17 17 17 17 16 16 16 16 16 15 15 15 15 15 15 15 15 15 15 14 14 14 14 14 14 14 14 14 14 14 14 14
20 20 20 20 20 19 18 17 17 17 17 16 16 16 16 16 16 16 16 16 16 16 16 16 16 15 15 15 15 15 15 14 14 14 14 14 14 14 14 14 14 14 14 14 14 14 14 14 14
21 20 20 19 20 18 17 17 17 17 16 16 16 16 16 16 16 16 16 16 16 16 16 16 16 15 15 15 14 14 14 14 14 14 14 14 14 14 14 14 14 14 14 14 13 13 13 13 13
20 20 19 19 19 18 17 17 17 16 16 16 16 16 16 16 16 16 16 16 16 15 15 15 15 15 15 14 14 14 14 14 14 14 14 14 14 14 14 13 13 13 13 13 13 13 13 13 13
21 20 19 19 19 18 18 17 17 16 16 16 16 16 16 16 16 16 15 15 15 15 15 15 15 14 14 14 14 14 14 14 14 14 14 13 13 13 13 13 13 13 13 13 13 13 13 13 13
20 21 20 19 18 17 18 17 17 16 15 15 15 16 16 16 16 16 15 15 15 15 15 15 14 14 14 14 14 13 13 13 13 13 13 13 13 13 13 13 13 13 13 13 13 13 13 13 13
21 19 19 18 17 16 16 16 16 16 15 15 15 15 15 15 15 15 15 15 15 15 14 14 14 14 14 14 13 13 13 13 13 13 13 13 13 13 13 13 13 13 13 13 13 13 13 12 12
20 18 17 15 15 16 16 16 16 15 15 15 15 15 15 15 15 15 15 15 15 14 14 14 14 14 14 13 13 13 13 13 13 13 13 13 13 13 12 12 12 12 12 12 12 12 12 12 12
19 18 17 17 16 16 16 16 15 16 15 15 15 15 15 15 15 15 15 15 14 14 14 14 14 14 13 13 13 13 13 13 13 12 12 12 12 12 12 12 12 12 12 12 12 12 12 12 12
19 18 17 17 16 16 16 16 15 16 16 16 15 15 15 15 15 15 15 15 14 14 14 14 14 14 13 13 13 13 13 13 12 12 12 12 12 12 12 12 12 12 12 12 12 12 12 12 12
19 17 16 15 16 15 15 15 16 16 15 15 15 15 15 15 15 15 15 15 14 14 14 14 14 14 13 13 13 13 13 12 12 12 12 12 12 12 12 12 12 12 12 12 12 12 12 12 12
18 16 14 15 16 16 16 16 15 15 15 14 14 14 15 15 15 15 15 14 14 14 14 14 14 14 13 13 13 13 13 12 12 12 12 12 12 12 12 12 12 12 12 12 11 11 11 11 11
18 16 14 13 14 15 15 15 15 15 14 14 13 14 15 15 15 15 14 14 14 14 14 14 13 13 13 13 13 13 13 12 12 12 12 12 12 12 12 12 12 12 12 11 11 11 11 11 11
18 17 15 16 15 14 14 14 15 14 14 14 14 15 15 15 15 15 14 14 14 14 14 14 13 13 13 13 13 13 12 12 12 12 12 12 12 12 12 12 11 11 11 11 11 11 11 11 11
Wind_Speed
1 2 2 3 5 5 2 3 2 2 2 1 2 3 4 3 2 1 1 6 7 9 9 12 12 12 12 12 12 12 12 12 13 13 13 13 13 13 13 13 12 12 12 11 11 11 10 10 10
2 2 3 4 5 3 3 3 1 1 1 1 3 3 4 2 1 2 1 4 8 9 8 9 11 11 11 11 11 11 11 11 11 12 12 12 12 12 11 11 11 11 11 10 10 10 10 10 9
2 2 4 5 4 3 2 3 1 1 2 1 2 3 2 1 1 1 2 8 9 8 8 9 12 11 11 11 11 11 11 10 10 11 11 11 11 10 10 10 10 9 9 9 9 9 9 9 9
3 3 5 5 1 3 4 4 2 1 3 2 2 2 2 3 1 3 8 10 10 7 7 9 11 11 11 11 11 11 10 9 9 10 10 10 10 10 9 9 9 8 8 8 7 8 8 8 8
3 4 5 3 1 2 3 4 2 0 1 1 2 3 1 4 5 8 9 10 10 7 7 8 9 9 10 10 10 10 9 8 8 8 9 9 9 9 9 8 8 7 7 6 6 6 6 7 7
4 5 5 0 2 2 2 2 1 1 1 0 2 3 1 4 6 7 8 8 8 8 6 7 7 8 8 9 9 9 8 8 7 7 8 8 8 7 7 7 7 6 6 5 5 6 6 6 6
4 4 3 2 2 3 2 1 1 1 0 0 2 4 1 2 4 7 8 8 8 7 6 5 5 6 6 7 7 7 7 7 6 6 6 6 6 6 6 5 5 5 5 5 5 5 6 6 6
5 5 2 1 3 4 2 0 0 1 1 1 2 4 2 3 6 8 9 8 7 6 5 3 3 4 4 4 5 6 5 6 5 5 5 5 4 4 5 4 5 5 5 5 5 4 4 4 4
4 4 1 4 5 4 2 0 1 2 3 2 2 2 4 10 10 9 8 6 5 5 3 3 2 2 2 3 4 4 4 4 4 4 5 4 3 3 3 3 4 4 5 5 5 4 4 4 4
4 3 6 5 5 4 2 1 2 2 2 2 3 5 9 10 10 9 8 7 5 4 3 2 2 2 2 2 2 3 3 3 3 3 3 3 2 2 2 2 3 4 4 4 4 5 5 4 3
4 5 5 4 4 4 3 1 1 4 1 3 4 7 8 8 7 7 6 6 5 4 3 2 2 1 2 1 2 2 2 2 2 2 2 2 2 1 1 1 2 3 3 3 3 3 3 3 2
3 4 3 3 2 3 3 2 2 2 2 2 6 9 8 8 6 6 5 4 4 3 3 2 1 1 1 1 1 1 1 1 1 1 2 2 1 1 1 1 2 1 1 1 1 2 3 3 3
2 3 2 2 0 2 4 4 4 2 3 7 9 9 7 6 4 3 3 3 3 3 2 1 1 1 0 1 0 1 1 1 1 1 2 3 2 2 2 1 1 1 1 1 2 2 3 3 3
2 1 2 2 1 2 5 2 3 1 5 8 8 7 6 5 4 3 3 3 2 2 2 1 1 1 0 1 1 1 1 1 1 2 2 3 3 2 1 1 1 2 2 2 2 3 3 3 3
1 3 4 3 2 1 5 4 2 2 7 8 7 6 5 4 3 3 2 2 3 3 2 1 1 0 0 1 1 1 1 1 1 1 2 2 3 2 2 1 2 2 2 1 2 3 2 2 3
3 3 2 4 2 1 5 1 1 4 8 7 6 5 4 3 3 2 2 1 1 2 1 0 0 1 1 1 1 1 0 0 1 1 1 2 2 3 2 1 2 2 1 1 2 2 2 2 2
4 1 2 4 1 2 4 2 1 4 7 6 4 4 4 3 2 2 2 2 1 1 1 1 1 1 1 1 1 0 1 1 1 1 1 1 2 2 2 1 2 1 1 1 2 1 1 2 2
3 2 2 3 1 4 4 2 3 4 6 5 3 3 3 1 0 1 1 2 2 2 1 1 1 1 1 1 1 1 0 1 0 1 1 1 1 1 1 1 2 1 1 1 1 1 1 2 2
4 3 3 4 1 4 4 3 2 4 4 4 2 2 1 0 0 1 1 2 2 2 1 1 1 2 1 0 1 1 2 1 1 1 0 0 1 1 1 1 2 1 1 2 2 2 1 1 1
4 3 2 2 2 4 5 4 2 3 2 2 3 2 1 0 1 1 1 1 1 0 1 2 2 2 2 1 1 2 2 2 2 1 1 1 1 1 2 2 2 2 2 2 2 1 1 1 0
3 5 5 3 3 4 4 3 2 1 2 1 0 1 1 1 2 1 1 0 0 1 1 2 2 2 2 1 0 0 1 1 1 1 2 2 2 2 2 3 3 3 3 3 3 3 3 2 1
3 3 4 5 4 1 1 1 2 0 1 1 2 1 1 2 1 1 1 1 2 2 2 2 2 2 1 0 1 1 1 1 2 2 2 3 3 3 3 3 3 3 2 3 3 3 3 2 2
2 2 4 4 5 3 4 2 4 1 2 4 3 3 3 2 1 1 1 2 2 2 2 2 2 2 1 1 1 1 1 2 1 1 2 3 3 3 3 2 2 2 2 3 3 2 3 3 3
3 6 7 6 5 2 2 2 4 3 4 3 3 3 2 1 1 2 2 1 2 1 2 2 2 2 2 1 1 1 2 2 1 2 2 2 2 3 3 2 2 2 2 3 3 3 3 3 3
5 5 4 4 4 3 2 1 5 4 2 3 3 3 2 1 1 2 3 3 3 2 2 2 2 2 2 1 1 2 2 3 3 3 2 3 2 3 3 3 2 2 2 2 2 2 2 3 3
1 6 6 4 4 3 2 2 5 2 1 1 1 1 1 1 1 2 3 3 3 3 2 2 2 2 2 2 2 2 2 2 2 3 3 3 3 3 3 3 2 2 2 2 2 2 2 2 3
3 2 4 6 2 0 3 4 4 1 2 2 1 1 2 2 2 3 3 3 3 3 3 2 2 2 3 2 2 2 2 2 2 3 2 2 3 3 2 2 2 2 2 2 2 2 2 2 2
4 6 5 5 3 1 3 3 3 4 3 2 2 2 3 3 3 3 3 4 4 3 3 2 1 2 3 2 2 2 2 2 2 2 2 3 3 2 2 2 2 2 2 1 1 2 2 2 2
3 4 5 4 4 4 2 5 3 5 4 3 3 3 3 3 3 3 4 4 3 3 2 2 2 2 2 2 2 2 2 2 1 1 2 3 3 2 2 2 1 1 2 1 1 1 1 1 1
2 4 5 3 2 3 3 5 3 2 2 2 3 3 3 3 3 3 3 3 3 3 3 3 2 2 3 2 1 2 2 2 2 2 3 2 2 2 2 1 1 1 1 1 1 1 1 1 1
Wind_Direction
148 103 97 77 58 50 347 297 279 311 346 4 60 99 117 117 142 205 348 125 127 135 144 151 152 149 143 138 135 132 132 133 135 137 140 143 146 150 154 158 161 165 168 171 172 173 173 175 175
138 130 76 63 77 56 306 281 285 269 198 40 50 63 74 63 65 87 82 124 127 130 132 146 152 150 146 142 139 136 135 135 136 139 143 147 150 155 160 163 167 171 173 176 179 180 181 182 183
151 106 89 73 91 165 244 271 223 350 3 50 71 53 79 66 85 122 131 128 118 120 126 144 147 148 147 146 145 142 142 141 141 143 146 150 153 154 160 165 171 176 179 183 187 189 190 191 194
100 58 61 75 92 227 228 257 249 322 1 23 109 79 60 25 25 124 123 123 119 118 122 139 142 143 143 144 144 143 142 141 144 148 149 152 157 160 164 169 173 176 181 188 191 195 198 199 201
66 80 63 50 289 262 246 252 235 180 331 27 107 118 34 13 70 105 119 124 125 119 113 129 139 143 143 143 144 144 145 146 149 153 156 158 161 165 168 174 179 184 189 193 192 196 201 208 211
57 68 82 80 269 267 256 218 144 115 189 144 114 120 50 36 84 105 111 112 114 116 107 116 131 139 144 149 151 152 152 153 157 162 164 165 168 171 174 179 183 188 193 201 205 206 211 218 224
103 95 136 190 248 271 234 180 176 228 296 303 130 122 121 59 84 100 101 99 100 107 110 108 122 132 144 152 155 155 158 161 163 166 167 170 174 178 179 185 190 196 205 214 219 217 220 227 229
122 101 98 212 217 251 239 139 93 108 264 18 109 142 181 149 111 96 90 88 92 97 100 97 104 116 131 151 155 153 159 167 168 170 170 174 186 194 193 199 197 210 223 228 229 232 233 233 236
94 77 201 217 209 240 229 215 358 72 98 61 46 97 131 131 119 107 102 93 100 106 104 116 92 92 114 143 154 159 168 174 178 184 186 180 183 199 210 215 209 225 235 238 234 237 243 242 242
96 143 228 218 200 201 219 215 184 89 77 58 55 71 111 125 127 128 134 140 144 147 149 137 118 99 100 142 138 141 160 174 180 169 173 168 164 182 198 226 232 239 247 252 249 245 247 247 249
159 199 239 250 213 174 175 186 111 128 166 208 170 143 135 131 132 137 146 155 161 161 155 154 132 110 100 106 121 115 125 138 166 178 175 162 152 166 200 245 271 270 264 270 270 270 268 256 249
192 249 238 254 194 156 162 139 82 102 216 170 155 144 141 139 143 147 147 151 145 144 157 158 134 102 93 86 104 133 137 143 164 193 183 161 167 187 207 228 262 274 275 276 285 277 276 277 269
207 276 309 274 326 126 106 102 111 45 77 99 110 116 123 128 132 128 130 128 130 154 166 165 120 85 50 68 79 123 174 174 175 194 202 186 189 214 217 235 253 268 266 264 269 270 271 272 268
231 271 310 333 64 103 111 81 82 53 92 96 105 112 115 117 122 114 109 130 158 172 174 189 169 171 176 206 188 197 194 181 173 195 212 198 189 196 213 235 266 274 260 253 255 260 262 266 264
35 9 355 356 27 115 105 43 26 123 110 105 107 108 96 87 85 107 135 159 174 179 186 202 189 124 358 256 224 185 187 175 201 215 218 204 190 186 192 225 246 265 265 263 270 275 271 269 270
35 43 352 313 39 84 112 179 341 124 121 116 114 108 93 72 70 90 100 103 134 142 131 11 4 5 338 327 274 231 161 164 223 216 214 218 210 196 182 220 252 261 257 258 254 264 271 269 269
32 17 277 302 9 111 123 168 124 117 122 120 119 117 107 84 45 44 66 80 103 137 114 32 346 340 323 321 335 238 177 214 231 207 207 218 223 198 175 221 257 255 249 255 258 256 251 257 266
239 234 262 259 265 102 115 133 111 116 123 128 130 126 111 106 24 12 50 76 73 57 64 55 303 331 320 320 345 329 293 282 278 246 240 214 218 201 181 224 263 256 249 275 271 274 268 258 263
192 192 244 262 200 105 117 114 114 120 118 123 134 146 144 214 328 46 43 61 58 27 4 326 333 332 332 287 271 258 249 260 269 268 296 319 234 206 194 239 258 249 233 245 242 233 252 265 261
187 202 245 307 72 114 107 75 78 101 139 152 168 180 196 321 6 10 45 48 52 337 316 311 310 301 295 257 244 225 226 241 241 262 328 329 275 244 224 222 237 234 233 256 244 219 207 241 166
208 197 208 188 74 78 97 31 29 56 69 63 146 207 221 214 228 269 294 285 292 279 287 295 284 288 293 284 300 27 39 354 5 337 318 305 295 267 241 231 232 233 218 230 234 209 196 213 229
259 237 183 157 123 88 90 197 283 277 341 321 297 294 272 269 262 262 263 285 283 272 282 286 283 289 292 263 144 150 174 228 246 262 282 304 304 286 257 238 230 226 222 228 236 211 203 189 220
226 54 101 108 115 75 32 119 282 350 291 285 292 307 305 303 287 283 259 258 280 286 300 295 308 315 308 293 177 171 215 229 268 292 295 301 302 293 279 253 237 237 235 234 231 218 202 196 206
117 68 59 53 71 50 309 158 274 249 239 268 292 307 301 301 322 316 316 311 302 309 312 302 319 323 322 323 279 204 224 242 281 290 284 290 299 300 299 276 252 248 248 244 240 226 214 210 214
62 79 40 8 14 260 291 174 251 259 235 215 242 271 283 278 300 323 320 318 310 307 303 303 320 328 330 331 299 257 236 227 234 252 258 277 292 292 293 288 270 265 263 257 240 229 235 217 215
95 127 151 198 221 270 331 252 263 279 285 237 219 247 276 290 300 291 296 296 293 294 300 303 311 309 314 309 293 285 268 253 254 252 253 262 267 272 282 283 274 262 257 259 241 240 245 230 228
109 100 145 129 122 42 291 296 311 8 4 6 347 331 286 285 300 302 312 307 296 294 288 275 281 297 304 298 300 300 294 282 277 276 274 278 278 279 288 283 276 278 275 269 250 250 256 241 233
99 132 89 101 132 264 297 284 265 275 286 307 314 288 285 293 310 315 313 304 300 295 295 303 286 281 289 296 296 302 298 286 278 290 294 292 292 295 300 306 303 305 299 280 252 256 255 232 244
58 74 87 98 137 156 252 275 237 221 232 238 259 263 270 278 288 298 300 300 307 325 326 312 304 293 291 295 304 316 307 300 302 299 294 298 305 299 287 282 288 298 298 288 254 267 270 243 265
116 136 138 138 216 167 180 270 304 214 216 222 258 273 280 279 286 294 308 326 335 327 320 311 296 280 274 273 294 308 315 335 332 319 315 321 319 317 309 310 309 301 301 291 240 270 282 238 252
Height
1493 1494 1495 1497 1500 1511 1512 1505 1499 1495 1493 1492 1492 1492 1493 1497 1500 1504 1498 1497 1499 1501 1502 1504 1506 1508 1510 1512 1513 1515 1516 1517 1518 1519 1520 1521 1522 1523 1524 1525 1526 1527 1528 1529 1530 1531 1533 1534 1535
1493 1494 1497 1498 1508 1521 1514 1502 1498 1494 1493 1492 1492 1493 1494 1496 1497 1497 1497 1498 1499 1501 1503 1505 1507 1509 1511 1512 1514 1515 1516 1517 1518 1519 1520 1521 1522 1523 1524 1525 1526 1527 1528 1529 1530 1531 1532 1533 1534
1493 1494 1497 1501 1512 1518 1510 1499 1496 1493 1493 1492 1494 1494 1495 1497 1497 1497 1498 1498 1500 1502 1504 1505 1507 1509 1511 1512 1514 1515 1516 1517 1518 1519 1520 1521 1522 1522 1523 1524 1525 1526 1527 1528 1529 1530 1530 1531 1532
1494 1496 1498 1506 1511 1507 1503 1497 1495 1494 1493 1493 1494 1496 1497 1498 1498 1498 1498 1499 1500 1502 1504 1506 1508 1509 1511 1512 1513 1515 1516 1516 1517 1518 1519 1520 1521 1522 1523 1523 1524 1525 1526 1527 1527 1528 1529 1530 1531
1494 1496 1504 1512 1509 1502 1497 1495 1494 1493 1494 1494 1494 1496 1497 1498 1498 1498 1499 1500 1501 1503 1505 1506 1508 1510 1511 1512 1513 1514 1515 1516 1517 1518 1518 1519 1520 1521 1522 1522 1523 1524 1524 1525 1526 1526 1527 1528 1529
1495 1497 1512 1516 1508 1500 1495 1494 1494 1494 1494 1494 1495 1496 1498 1498 1498 1499 1500 1501 1503 1504 1506 1507 1509 1510 1511 1512 1513 1514 1515 1515 1516 1517 1517 1518 1519 1520 1520 1521 1522 1522 1523 1523 1524 1525 1525 1526 1526
1496 1502 1510 1510 1507 1501 1495 1494 1494 1494 1494 1495 1495 1497 1499 1499 1499 1500 1501 1502 1503 1505 1506 1508 1509 1510 1511 1512 1513 1513 1514 1515 1515 1516 1517 1517 1518 1519 1519 1519 1520 1521 1521 1521 1522 1522 1523 1524 1524
1495 1501 1507 1509 1506 1501 1494 1493 1494 1495 1495 1496 1496 1497 1498 1499 1499 1500 1502 1503 1504 1505 1507 1508 1509 1510 1511 1512 1512 1513 1513 1514 1514 1515 1515 1516 1516 1517 1517 1518 1518 1519 1519 1519 1520 1520 1521 1521 1522
1496 1506 1511 1505 1502 1497 1493 1493 1494 1495 1495 1496 1496 1497 1497 1498 1499 1501 1502 1503 1504 1506 1507 1508 1509 1510 1510 1511 1511 1512 1512 1513 1513 1513 1514 1514 1515 1515 1516 1516 1516 1517 1517 1518 1518 1518 1518 1519 1519
1496 1507 1502 1494 1493 1492 1492 1493 1494 1495 1496 1496 1497 1497 1497 1498 1499 1500 1501 1503 1504 1505 1506 1507 1508 1509 1510 1510 1510 1510 1510 1511 1511 1512 1512 1513 1513 1513 1514 1514 1515 1515 1515 1515 1516 1516 1516 1517 1517
1494 1498 1493 1490 1489 1490 1491 1493 1494 1495 1497 1496 1496 1497 1497 1498 1499 1500 1502 1503 1504 1505 1506 1507 1507 1508 1508 1508 1508 1509 1508 1509 1509 1510 1510 1511 1511 1511 1512 1512 1512 1513 1513 1513 1513 1514 1514 1514 1515
1493 1492 1491 1489 1489 1489 1491 1492 1494 1495 1496 1496 1496 1496 1497 1498 1500 1501 1502 1504 1505 1505 1505 1506 1506 1507 1507 1507 1507 1507 1507 1507 1507 1508 1508 1508 1508 1509 1509 1509 1509 1510 1510 1510 1511 1511 1511 1512 1512
1492 1491 1489 1488 1488 1489 1490 1492 1494 1496 1496 1495 1496 1498 1499 1500 1501 1502 1503 1504 1505 1505 1505 1505 1505 1506 1506 1506 1506 1506 1506 1506 1506 1506 1506 1506 1506 1506 1506 1507 1507 1507 1507 1508 1508 1508 1508 1509 1509
1490 1490 1489 1488 1488 1489 1491 1494 1495 1497 1497 1497 1497 1499 1500 1500 1501 1502 1503 1504 1504 1504 1504 1504 1505 1505 1505 1505 1505 1505 1504 1504 1504 1504 1504 1504 1504 1504 1504 1504 1504 1504 1505 1505 1505 1505 1505 1505 1505
1490 1491 1490 1489 1488 1490 1492 1497 1497 1497 1498 1498 1499 1500 1502 1502 1502 1503 1503 1503 1504 1504 1504 1504 1504 1504 1504 1504 1503 1503 1503 1503 1502 1502 1502 1502 1502 1502 1501 1502 1502 1502 1502 1502 1502 1503 1502 1502 1502
1491 1496 1500 1492 1490 1491 1496 1505 1499 1498 1498 1500 1501 1502 1503 1503 1504 1503 1503 1504 1504 1503 1503 1503 1503 1503 1503 1502 1502 1501 1501 1501 1500 1500 1499 1499 1499 1500 1499 1500 1500 1500 1500 1500 1500 1499 1499 1499 1499
1500 1505 1503 1497 1491 1492 1496 1503 1500 1499 1500 1501 1503 1503 1503 1504 1504 1504 1504 1503 1503 1503 1503 1503 1502 1501 1501 1500 1500 1499 1498 1498 1498 1498 1497 1497 1497 1497 1497 1498 1498 1498 1498 1498 1497 1497 1497 1497 1496
1504 1503 1502 1500 1494 1494 1498 1502 1500 1500 1501 1502 1504 1504 1504 1504 1504 1504 1504 1503 1503 1503 1502 1502 1501 1500 1499 1498 1498 1497 1497 1496 1496 1495 1495 1495 1495 1495 1496 1496 1496 1496 1496 1496 1495 1495 1494 1494 1494
1494 1498 1501 1498 1493 1497 1501 1502 1501 1501 1502 1503 1503 1503 1503 1503 1504 1504 1503 1502 1501 1501 1501 1500 1499 1498 1496 1496 1495 1494 1494 1494 1494 1493 1493 1493 1493 1494 1494 1494 1494 1494 1494 1493 1493 1492 1492 1492 1491
1493 1499 1501 1498 1494 1498 1503 1505 1502 1502 1503 1503 1503 1502 1502 1502 1502 1502 1502 1501 1501 1500 1500 1498 1497 1496 1494 1493 1493 1492 1491 1492 1492 1491 1491 1491 1491 1492 1492 1492 1492 1492 1492 1491 1491 1490 1490 1490 1489
1493 1496 1497 1499 1498 1499 1503 1508 1506 1504 1503 1503 1503 1502 1502 1501 1500 1500 1500 1500 1499 1499 1498 1496 1495 1494 1493 1492 1491 1490 1490 1490 1489 1489 1489 1489 1490 1489 1489 1490 1490 1490 1489 1489 1489 1488 1488 1487 1487
1495 1487 1489 1494 1503 1511 1507 1520 1510 1506 1505 1503 1502 1501 1500 1500 1499 1499 1499 1498 1498 1497 1496 1495 1494 1492 1491 1490 1489 1488 1488 1488 1487 1487 1487 1487 1487 1487 1487 1487 1487 1487 1487 1487 1487 1486 1486 1485 1485
1488 1486 1489 1495 1504 1512 1512 1519 1515 1507 1507 1503 1501 1500 1499 1499 1498 1498 1497 1497 1497 1496 1495 1494 1492 1491 1490 1489 1488 1488 1487 1487 1486 1485 1485 1485 1485 1485 1485 1485 1485 1485 1484 1484 1484 1484 1483 1483 1483
1485 1490 1496 1503 1510 1521 1515 1518 1518 1510 1505 1502 1501 1500 1499 1498 1497 1497 1496 1496 1495 1495 1494 1493 1491 1490 1489 1488 1487 1487 1486 1485 1484 1484 1484 1483 1483 1483 1483 1483 1482 1482 1482 1482 1481 1481 1481 1481 1480
1488 1501 1516 1519 1527 1524 1514 1516 1515 1503 1500 1500 1499 1498 1498 1497 1496 1496 1495 1494 1494 1493 1492 1491 1490 1489 1488 1487 1486 1486 1485 1484 1483 1482 1482 1481 1481 1481 1481 1480 1480 1479 1479 1479 1479 1478 1478 1478 1477
1492 1498 1517 1526 1529 1525 1516 1517 1510 1500 1498 1498 1498 1498 1497 1496 1496 1495 1494 1493 1493 1492 1491 1490 1489 1488 1487 1486 1485 1484 1483 1482 1482 1481 1480 1480 1479 1479 1479 1478 1478 1477 1477 1476 1476 1476 1475 1475 1474
1493 1501 1502 1517 1521 1526 1521 1513 1505 1500 1499 1498 1498 1497 1496 1495 1495 1495 1494 1493 1492 1491 1490 1489 1488 1488 1487 1486 1485 1484 1482 1481 1480 1480 1479 1478 1478 1477 1477 1476 1476 1475 1475 1474 1474 1473 1473 1472 1471
1491 1498 1509 1517 1525 1527 1521 1516 1514 1504 1501 1499 1497 1496 1495 1495 1495 1494 1493 1492 1491 1490 1490 1489 1488 1487 1486 1485 1484 1483 1482 1481 1480 1479 1478 1477 1477 1476 1475 1475 1474 1473 1473 1472 1471 1471 1470 1469 1469
1496 1501 1509 1518 1519 1527 1530 1521 1502 1500 1499 1498 1497 1496 1495 1495 1494 1494 1493 1492 1491 1490 1489 1488 1487 1486 1485 1484 1483 1482 1481 1480 1479 1478 1477 1476 1475 1475 1474 1473 1473 1472 1471 1470 1469 1468 1468 1467 1467
1491 1498 1506 1515 1520 1522 1526 1521 1497 1496 1496 1496 1496 1495 1495 1494 1494 1493 1492 1491 1490 1489 1488 1487 1485 1484 1483 1483 1482 1481 1480 1479 1478 1477 1476 1476 1475 1474 1473 1472 1471 1470 1469 1468 1468 1467 1466 1465 1465